Powrót do katalogu

COSMOS 1395

AktywnyNawigacjaLEO
NORAD 13382·PAYLOAD·🇷🇺 Russia

Wystrzelony Jul 21, 1982 z Plesetsk Cosmodrome

Loading…

Następne Przeloty (najbliższe 24 godziny)

TLE

ŚwieżeSource: Space-Track

Epoka: Sep 14, 2026, 14:40 UTC

1 13382U 82073H   26257.61139640 -.00000002  00000-0  10060-3 0  9992
2 13382  74.0133 123.8678 0026408 127.6876 246.6201 12.42867441  3226

Śledź COSMOS 1395 w czasie rzeczywistym z AllMySat

Download on the App Store